Location: Colebrook
(42.0017°N, 73.0973°W)
Time: 00:11:08
(UTC-04:00)

Amateur Radio Satellites - All Passes

Search period start: 29 August 2014 23:41
Search period end: 30 August 2014 23:41
Location: Colebrook, 42.0017°N, 73.0973°W

Satellite Date Start Highest point End Downlink Frequencies (MHz)
Time Altitude Azimuth
Saudisat 1A 29 Aug 23:47:30 23:51:46 48° 308° (NW) 23:56:04 436.775 MHz
MaSat-1 30 Aug 00:04:40 00:08:24 26° 256° (WSW) 00:11:43 437.345 MHz
KITSAT 1 30 Aug 00:34:06 00:42:10 72° 304° (WNW) 00:50:18 435.175 FM
PCSat 30 Aug 00:43:09 00:46:18 15° 39° (NE) 00:49:26 145.825 MHz
Oscar 16 30 Aug 01:30:01 01:33:58 22° 93° (E) 01:37:53 437.025 USB, Beacon 2401.1428
Uribyol 2 30 Aug 01:38:24 01:39:05 10° 88° (E) 01:39:46 436.500 FM
AO-27 30 Aug 01:54:52 01:57:52 15° 91° (E) 02:00:51 436.795 MHz FM
Sapphire 30 Aug 01:55:43 02:00:54 43° 53° (NE) 02:06:02 437.095 MHz 1200 baud AX-25 AFSK
Gurwin Techsat 1B 30 Aug 02:18:39 02:20:10 11° 88° (E) 02:21:41 435.225 FM
PCSat 30 Aug 02:25:11 02:30:38 78° 59° (ENE) 02:36:03 145.825 MHz
KITSAT 1 30 Aug 02:33:06 02:39:06 22° 328° (NNW) 02:45:08 435.175 FM
Oscar 19 30 Aug 02:33:38 02:38:52 81° 104° (ESE) 02:44:03 437.125 CW, 437.150 USB
JAS-1B 30 Aug 02:34:25 02:40:29 34° 93° (E) 02:45:48 435.800 - 435.900 CW/SSB
OPAL 30 Aug 02:47:30 02:49:31 12° 55° (NE) 02:51:33 ?
ITAMSAT 1 30 Aug 03:03:50 03:09:00 68° 102° (ESE) 03:14:10 435.822 SSB
TMSAT-1 30 Aug 03:08:28 03:12:50 26° 94° (E) 03:17:10 436.925 FM
Oscar 16 30 Aug 03:08:33 03:13:33 47° 290° (WNW) 03:18:30 437.025 USB, Beacon 2401.1428
AO-Echo 30 Aug 03:08:38 03:13:22 86° 104° (ESE) 03:18:05 ?
Uribyol 2 30 Aug 03:14:02 03:19:15 89° 104° (ESE) 03:24:28 436.500 FM
AO-27 30 Aug 03:32:41 03:37:50 66° 287° (WNW) 03:42:58 436.795 MHz FM
Sapphire 30 Aug 03:39:32 03:44:06 28° 251° (WSW) 03:48:40 437.095 MHz 1200 baud AX-25 AFSK
SO-50 30 Aug 03:44:21 03:48:32 40° 116° (ESE) 03:52:48 436.795 FM
Gurwin Techsat 1B 30 Aug 03:55:29 04:00:49 88° 284° (WNW) 04:06:08 435.225 FM
Uosat F 30 Aug 04:00:03 04:02:31 14° 90° (E) 04:04:58 435.120 FM
PCSat 30 Aug 04:10:30 04:13:21 15° 257° (WSW) 04:16:11 145.825 MHz
Oscar 19 30 Aug 04:14:53 04:17:30 14° 301° (WNW) 04:20:08 437.125 CW, 437.150 USB
OPAL 30 Aug 04:22:32 04:27:35 87° 73° (ENE) 04:32:45 ?
JAS-1B 30 Aug 04:24:55 04:31:12 38° 297° (WNW) 04:36:41 435.800 - 435.900 CW/SSB
KITSAT 1 30 Aug 04:35:41 04:38:19 12° 358° (N) 04:40:57 435.175 FM
ITAMSAT 1 30 Aug 04:44:46 04:47:56 17° 299° (WNW) 04:51:07 435.822 SSB
AO-7 30 Aug 04:46:09 04:54:02 45° 100° (E) 05:01:50 29.400 - 29.500 MHz
TMSAT-1 30 Aug 04:47:56 04:52:52 41° 291° (WNW) 04:57:48 436.925 FM
AO-Echo 30 Aug 04:50:09 04:51:26 11° 301° (WNW) 04:52:43 ?
Uribyol 2 30 Aug 04:55:44 04:57:58 13° 302° (WNW) 05:00:13 436.500 FM
SO-50 30 Aug 05:25:26 05:29:13 26° 315° (NW) 05:33:06 436.795 FM
Uosat F 30 Aug 05:36:48 05:41:47 69° 287° (WNW) 05:46:45 435.120 FM
Gurwin Techsat 1B 30 Aug 05:37:46 05:39:59 13° 302° (WNW) 05:42:12 435.225 FM
Hamsat 30 Aug 05:40:21 05:42:24 13° 90° (E) 05:44:26 145.90 MHz
JAS-2 30 Aug 05:44:10 05:47:23 16° 92° (E) 05:50:42 435.800 - 435.900 CW/SSB, 435.910 FM
UOSAT-12 30 Aug 05:48:15 05:52:45 58° 119° (ESE) 05:57:22 437.025 FM, 437.400 FM
STRAND 1 30 Aug 06:05:36 06:10:11 35° 68° (ENE) 06:14:46 ?
OPAL 30 Aug 06:05:49 06:07:08 11° 270° (W) 06:08:27 ?
Oscar 10/S400 30 Aug 06:15:31 06:54:16 13° 258° (WSW) 07:50:40 145.825 - 145.975 CW/USB, Beacon 145.810 USB
KITSAT 1 30 Aug 06:32:11 06:37:44 19° 29° (NNE) 06:43:14 435.175 FM
Saudisat 1A 30 Aug 06:34:53 06:38:14 21° 43° (NE) 06:41:35 436.775 MHz
AO-7 30 Aug 06:39:06 06:46:45 43° 299° (WNW) 06:54:22 29.400 - 29.500 MHz
RS-15 30 Aug 07:02:30 07:12:11 37° 107° (ESE) 07:21:42 29.354 - 29.394 USB, Beacon 29.352 USB
SO-67 30 Aug 07:04:49 07:06:33 13° 92° (E) 07:08:17 435.3500 MHz FM
Hamsat 30 Aug 07:14:26 07:18:43 56° 286° (WNW) 07:22:57 145.90 MHz
JAS-2 30 Aug 07:27:44 07:32:53 62° 287° (WNW) 07:38:23 435.800 - 435.900 CW/SSB, 435.910 FM
UOSAT-12 30 Aug 07:29:41 07:33:16 22° 318° (NW) 07:36:55 437.025 FM, 437.400 FM
STRAND 1 30 Aug 07:45:02 07:49:23 28° 264° (W) 07:53:46 ?
Saudisat 1A 30 Aug 08:13:49 08:18:08 53° 241° (WSW) 08:22:24 436.775 MHz
KITSAT 1 30 Aug 08:26:58 08:34:59 61° 54° (NE) 08:42:56 435.175 FM
SO-67 30 Aug 08:36:34 08:39:44 34° 288° (WNW) 08:42:53 435.3500 MHz FM
HO-68 30 Aug 09:05:32 09:11:40 30° 95° (E) 09:17:46 435.675 MHz FM
RS-15 30 Aug 09:12:54 09:23:51 65° 309° (NW) 09:34:45 29.354 - 29.394 USB, Beacon 29.352 USB
KITSAT 1 30 Aug 10:23:02 10:29:54 32° 253° (WSW) 10:36:44 435.175 FM
UKube-1 30 Aug 10:33:50 10:38:12 83° 285° (WNW) 10:42:32 145.840 MHz, 145.915 MHz
ISS 30 Aug 10:37:33 10:40:38 37° 138° (SE) 10:43:45 145.800 FM
Oscar 11 30 Aug 10:40:31 10:44:55 78° 102° (ESE) 10:49:16 145.825 FM, Beacon 2401.500 USB
HO-68 30 Aug 10:52:44 10:59:38 54° 293° (WNW) 11:06:32 435.675 MHz FM
FUNcube-1 30 Aug 11:04:31 11:08:59 56° 100° (E) 11:13:30 145.950 - 145.970 MHz USB
RS-15 30 Aug 11:30:08 11:38:51 26° 339° (NNW) 11:47:38 29.354 - 29.394 USB, Beacon 29.352 USB
Oscar 19 30 Aug 12:14:11 12:17:19 16° 61° (ENE) 12:20:27 437.125 CW, 437.150 USB
ISS 30 Aug 12:14:21 12:17:24 33° 335° (NNW) 12:20:28 145.800 FM
SO-50 30 Aug 12:15:15 12:19:50 44° 51° (NE) 12:24:28 436.795 FM
MaSat-1 30 Aug 12:17:19 12:19:52 14° 99° (E) 12:22:29 437.345 MHz
Oscar 11 30 Aug 12:19:15 12:20:27 11° 299° (WNW) 12:21:39 145.825 FM, Beacon 2401.500 USB
UOSAT-12 30 Aug 12:39:25 12:40:58 11° 32° (NNE) 12:42:32 437.025 FM, 437.400 FM
FUNcube-1 30 Aug 12:42:14 12:44:56 16° 296° (WNW) 12:47:40 145.950 - 145.970 MHz USB
HO-68 30 Aug 12:44:13 12:45:46 11° 313° (NW) 12:47:20 435.675 MHz FM
AO-Echo 30 Aug 12:45:55 12:48:36 15° 62° (ENE) 12:51:15 ?
ITAMSAT 1 30 Aug 12:45:56 12:48:39 15° 59° (ENE) 12:51:23 435.822 SSB
Oscar 16 30 Aug 12:47:14 12:51:47 33° 67° (ENE) 12:56:22 437.025 USB, Beacon 2401.1428
Uribyol 2 30 Aug 12:55:07 12:58:36 19° 62° (ENE) 13:02:05 436.500 FM
AO-27 30 Aug 13:13:04 13:17:16 26° 65° (ENE) 13:21:28 436.795 MHz FM
JAS-1B 30 Aug 13:16:23 13:25:14 42° 64° (ENE) 13:33:12 435.800 - 435.900 CW/SSB
Gurwin Techsat 1B 30 Aug 13:39:02 13:42:51 21° 63° (ENE) 13:46:41 435.225 FM
RS-15 30 Aug 13:48:03 13:56:22 24° 15° (NNE) 14:04:48 29.354 - 29.394 USB, Beacon 29.352 USB
Oscar 19 30 Aug 13:50:56 13:56:04 69° 258° (WSW) 14:01:16 437.125 CW, 437.150 USB
MaSat-1 30 Aug 13:51:17 13:56:11 74° 297° (WNW) 14:01:23 437.345 MHz
ISS 30 Aug 13:52:44 13:54:53 16° 355° (N) 13:57:02 145.800 FM
SO-50 30 Aug 13:56:19 14:00:11 24° 248° (WSW) 14:04:04 436.795 FM
AO-7 30 Aug 13:57:59 14:02:15 15° 45° (NE) 14:06:30 29.400 - 29.500 MHz
UOSAT-12 30 Aug 14:17:31 14:22:11 56° 53° (NE) 14:26:46 437.025 FM, 437.400 FM
AO-Echo 30 Aug 14:21:47 14:26:50 71° 258° (WSW) 14:31:44 ?
ITAMSAT 1 30 Aug 14:22:19 14:27:29 78° 257° (WSW) 14:32:41 435.822 SSB
Oscar 16 30 Aug 14:26:33 14:31:06 31° 264° (W) 14:35:41 437.025 USB, Beacon 2401.1428
PANSAT 30 Aug 14:28:22 14:29:12 11° 184° (S) 14:30:02 not established
TMSAT-1 30 Aug 14:29:29 14:34:25 41° 69° (ENE) 14:39:21 436.925 FM
Uribyol 2 30 Aug 14:32:32 14:37:36 59° 259° (W) 14:42:43 436.500 FM
AO-27 30 Aug 14:51:41 14:56:33 41° 262° (W) 15:01:27 436.795 MHz FM
JAS-1B 30 Aug 15:05:53 15:15:27 55° 260° (W) 15:24:09 435.800 - 435.900 CW/SSB
Uosat F 30 Aug 15:13:19 15:17:03 22° 63° (ENE) 15:20:46 435.120 FM
Gurwin Techsat 1B 30 Aug 15:17:13 15:22:24 55° 260° (W) 15:27:37 435.225 FM
ISS 30 Aug 15:29:55 15:32:32 21° 16° (NNE) 15:35:09 145.800 FM
MaSat-1 30 Aug 15:31:41 15:34:09 13° 317° (NW) 15:36:38 437.345 MHz
AO-7 30 Aug 15:45:14 15:53:25 63° 66° (ENE) 16:01:35 29.400 - 29.500 MHz
UOSAT-12 30 Aug 15:58:43 16:01:54 18° 250° (WSW) 16:05:02 437.025 FM, 437.400 FM
RS-15 30 Aug 16:01:21 16:12:06 53° 46° (NE) 16:23:11 29.354 - 29.394 USB, Beacon 29.352 USB
TMSAT-1 30 Aug 16:10:08 16:14:27 25° 266° (W) 16:18:48 436.925 FM
Oscar 10/S400 30 Aug 16:12:23 16:26:48 22° 144° (SE) 16:42:32 145.825 - 145.975 CW/USB, Beacon 145.810 USB
OPAL 30 Aug 16:32:48 16:36:50 22° 95° (E) 16:40:50 ?
Hamsat 30 Aug 16:35:32 16:36:42 11° 61° (ENE) 16:37:51 145.90 MHz
Sapphire 30 Aug 16:38:13 16:43:04 35° 110° (ESE) 16:47:56 437.095 MHz 1200 baud AX-25 AFSK
Uosat F 30 Aug 16:50:40 16:55:30 48° 260° (W) 17:00:21 435.120 FM
ISS 30 Aug 17:06:19 17:09:39 84° 34° (NNE) 17:12:59 145.800 FM
PCSat 30 Aug 17:07:05 17:12:26 67° 116° (ESE) 17:17:50 145.825 MHz
AO-7 30 Aug 17:39:37 17:46:38 30° 265° (W) 17:53:43 29.400 - 29.500 MHz
JAS-2 30 Aug 17:39:58 17:45:59 57° 72° (ENE) 17:51:24 435.800 - 435.900 CW/SSB, 435.910 FM
Hamsat 30 Aug 18:07:42 18:12:00 77° 258° (WSW) 18:16:23 145.90 MHz
OPAL 30 Aug 18:10:55 18:15:55 48° 292° (WNW) 18:20:53 ?
RS-15 30 Aug 18:13:58 18:24:27 51° 249° (WSW) 18:35:23 29.354 - 29.394 USB, Beacon 29.352 USB
STRAND 1 30 Aug 18:18:26 18:19:30 11° 88° (E) 18:20:34 ?
Sapphire 30 Aug 18:21:30 18:26:27 36° 309° (NW) 18:31:26 437.095 MHz 1200 baud AX-25 AFSK
ISS 30 Aug 18:44:40 18:45:56 12° 230° (SW) 18:47:12 145.800 FM
PCSat 30 Aug 18:52:14 18:56:21 22° 316° (NW) 19:00:30 145.825 MHz
SO-67 30 Aug 19:09:24 19:12:51 77° 77° (ENE) 19:16:20 435.3500 MHz FM
JAS-2 30 Aug 19:26:55 19:31:20 20° 266° (W) 19:35:28 435.800 - 435.900 CW/SSB, 435.910 FM
HO-68 30 Aug 19:35:26 19:40:57 25° 58° (ENE) 19:46:30 435.675 MHz FM
STRAND 1 30 Aug 19:54:14 19:59:21 87° 284° (WNW) 20:04:28 ?
HO-68 30 Aug 21:20:57 21:28:03 69° 256° (WSW) 21:35:12 435.675 MHz FM
UKube-1 30 Aug 21:29:30 21:33:51 90° 72° (ENE) 21:38:13 145.840 MHz, 145.915 MHz
Oscar 11 30 Aug 21:35:43 21:40:00 63° 74° (ENE) 21:44:19 145.825 FM, Beacon 2401.500 USB
STRAND 1 30 Aug 21:35:56 21:37:46 12° 302° (WNW) 21:39:36 ?
FUNcube-1 30 Aug 22:01:35 22:05:33 45° 72° (ENE) 22:09:38 145.950 - 145.970 MHz USB
MaSat-1 30 Aug 22:09:08 22:13:13 29° 53° (NE) 22:16:51 437.345 MHz
Saudisat 1A 30 Aug 22:20:40 22:24:40 35° 116° (ESE) 22:28:41 436.775 MHz
KITSAT 1 30 Aug 22:55:59 23:03:16 39° 109° (ESE) 23:10:33 435.175 FM
Oscar 11 30 Aug 23:15:02 23:16:36 12° 270° (W) 23:18:10 145.825 FM, Beacon 2401.500 USB
HO-68 30 Aug 23:15:46 23:16:59 10° 274° (W) 23:18:12 435.675 MHz FM
